星链-31666 (STARLINK-31666 )

导读 | 星芒AI

STARLINK-31666 是 SpaceX Starlink 卫星互联网项目中的一颗低轨道卫星。该卫星属于 Starlink 群体的一部分,旨在为全球用户提供高速互联网服务。它运行在约 550 公里的轨道高度,采用先进通信技术,支持宽带数据传输。该卫星的发射和运行有助于扩大 Starlink 在全球范围内的覆盖能力,特别是在偏远和网络基础设施不足的地区。作为可操作卫星,它具备自动避撞功能,以确保太空安全。

基本信息
目录编号:
59572
目录名称:
STARLINK-31666
国际标识:
2024-076J
轨道中心:
EARTH
卫星名称:
星链-31666
卫星全名:
星链-31666 (STARLINK-31666 )
卫星状态:
在轨 (已飞行606 天)
发射日期:
2024-04-23 UTC
国别 :
美国 (US)
星等 :
--
轨道信息
数据来源 国际轨道数据
星历时间: 2025-12-19T23:51:56+0800
12小时前
查看轨道信息
半长轴: 6861.2km
偏心率: 0.0001059
轨道倾角: 43.002°
近地点辐角 267.672°
升交点赤经 93.985°
平近点角 92.401°
近地点: 482.336km
远地点: 483.79km
周期: 94.267分钟
每日圈数: 15.275756
详细信息
固有亮度:
5
最大亮度:
1.5
卫星平台:
Starlink v2.0 mini
覆盖范围:
全球
运营商:
太空探索技术公司
运营商所在国:
美国
制造商(研发单位):
太空探索技术公司
制造商所在国:
美国
使用方式:
暂无
卫星简介
星链(Starlink)计划是由太空探索技术公司(SpaceX)提出的一个巨型低轨卫星互联网星座项目,计划在2019年至2024年间在太空搭建由约1.2万颗卫星组成的“星链”网络,其中1584颗将部署在地球上空550千米处的近地轨道,并从2020年开始工作。该卫星仍在工作。
2D轨道图
3D轨道图
轨道高度分析图
轨道倾角分析图
轨道综合分析图
查看轨道综合分析图